[[{"header":{"parameterUnit":"m.s-1","parameterCategory":1,"la1":30.2991,"la2":30.254,"lo1":-89.0895,"lo2":-89.0444,"dy":0.0017,"dx":0.0017,"nx":28,"ny":28,"refTime":"2025-03-19T03:00:00:Z","depth":0,"parameterNumber":2,"parameterNumberName":"U-component_of_WINDS"},"data":[0,0,0,0,0,0,0,0,0,0,0,0,0,0,0,0,0,0,0,0,0,0,0,0,0,0,0,0,0,0,0,0,0,0,0,0,0,0,0,0,0,0,0,0,0,0,0,0,0,0,0,0,0,0,0,0,0,0,3.7442,3.7442,0,3.7473,3.7474,3.7474,3.7417,3.7415,3.7413,3.7411,3.7442,3.7444,3.7447,0,0,0,0,0,0,0,0,0,0,0,0,0,3.7331,3.7334,3.7441,3.7442,3.7442,3.7473,3.7474,3.7474,3.7417,3.7415,3.7412,3.741,3.7441,3.7444,3.7447,0,0,0,0,0,0,0,0,0,0,0,0,0,3.7373,3.7334,3.7441,3.7418,3.7416,3.7473,3.7474,3.7474,3.7417,3.7415,3.7412,3.7409,3.744,3.7444,3.7448,3.7529,0,0,3.746,3.7461,0,0,0,0,0,0,0,0,3.7371,3.7377,3.7421,3.7419,3.7417,3.7438,3.7446,3.7493,3.7418,3.7417,3.7411,3.7408,3.7443,3.7446,3.7459,3.7531,3.7532,3.746,3.7462,3.7464,3.7465,0,0,0,0,0,0,0,3.7368,3.7375,3.7454,3.7421,3.7419,3.7405,3.7408,3.7455,3.7445,3.7417,3.7413,3.7417,3.7441,3.7455,3.7459,3.7533,3.746,3.7463,3.7466,3.7467,3.7675,3.7678,0,0,0,0,0,0,3.7368,3.7373,3.7453,3.7455,3.7386,3.741,3.7413,3.7434,3.7445,3.7444,3.742,3.7414,3.745,3.7454,3.746,3.7557,3.7464,3.7468,3.747,3.7672,3.7676,3.7679,0,0,0,0,0,0,3.7366,3.7376,3.7452,3.7413,3.7422,3.7415,3.7439,3.7436,3.745,3.7447,3.7445,3.7435,3.7448,3.7454,3.7513,3.7557,3.7469,3.7473,3.7668,3.7673,3.7677,3.7751,0,0,0,0,0,0,3.7363,3.7375,3.7406,3.7414,3.7424,3.7504,3.7442,3.7439,3.7457,3.745,3.7461,3.746,3.7446,3.7507,3.7517,3.7561,3.7476,3.7664,3.767,3.7676,3.7744,3.7757,3.7769,0,0,0,0,0,3.7359,3.7425,3.7408,3.7418,3.7462,3.7507,3.7513,3.7495,3.7461,3.7492,3.749,3.746,3.7551,3.7514,3.7524,3.757,3.7661,3.7668,3.7675,3.7739,3.7755,3.7768,0,0,0,0,0,0,3.742,3.7425,3.7406,3.7477,3.7492,3.7497,3.7536,3.7513,3.7538,3.753,3.7508,3.751,3.7574,3.7578,3.7536,3.765,3.76,3.761,3.7645,3.766,3.7672,3.7669,3.7479,0,0,0,0,0,3.7442,3.7479,3.7481,3.7542,3.7551,3.7543,3.7561,3.7547,3.7562,3.7568,3.757,3.7586,3.7618,3.7639,3.7669,3.7745,3.7747,3.7782,3.7794,3.7804,3.7812,3.7854,3.787,3.7702,3.7702,3.7702,0,0,3.7487,3.7495,3.7519,3.7555,3.7565,3.7603,3.7548,3.759,3.7619,3.7574,3.763,3.7633,3.7648,3.7717,3.7747,3.7722,3.7859,3.7813,3.7821,3.7824,3.7863,3.7879,3.7893,3.7707,3.7706,3.7706,0,0,3.7589,3.7598,3.7651,3.7663,3.768,3.7674,3.7687,3.7697,3.7697,3.7753,3.7721,3.7754,3.781,3.7822,3.7836,3.7946,3.7919,3.7956,3.8019,3.806,3.8073,3.8085,3.8124,3.8139,3.7965,3.7965,3.7965,0,3.7643,3.7699,3.7681,3.7726,3.7744,3.7707,3.776,3.7773,3.7798,3.7811,3.7783,3.7853,3.7861,3.7932,3.7959,3.7972,3.7986,3.7954,3.8073,3.8085,3.8095,3.8132,3.8147,3.7969,3.7969,3.7968,3.7968,0,3.7765,3.7805,3.7845,3.7872,3.7894,3.7943,3.7933,3.7958,3.7942,3.794,3.7998,3.8006,3.8037,3.8054,3.8038,3.8123,3.8107,3.8077,3.8026,3.8116,3.815,3.8165,3.7976,3.7974,3.7973,3.7972,0,0,3.7904,3.7922,3.7937,3.7949,3.7966,3.7997,3.8045,3.8076,3.8098,3.8118,3.8157,3.8207,3.8179,3.8195,3.8181,3.8218,3.8305,3.8182,3.8182,3.8205,3.84,3.8422,3.8439,3.8288,3.829,3.8292,3.8399,0,3.8005,3.8088,3.8075,3.8155,3.8192,3.8159,3.8201,3.8217,3.8216,3.8247,3.8246,3.8282,3.8243,3.8252,3.8287,3.8287,3.8343,3.8279,3.8324,3.8326,3.8321,3.8457,3.8481,3.858,3.8412,3.8414,3.8416,0,3.8133,3.8159,3.8244,3.8257,3.8272,3.831,3.8338,3.8369,3.8386,3.8383,3.8403,3.8383,3.8431,3.8381,3.8448,3.8405,3.8423,3.8426,3.8429,3.8432,3.8376,3.8463,3.8612,3.8626,3.8437,3.8435,3.8434,0,3.8227,3.8282,3.8341,3.8352,3.8369,3.8396,3.8404,3.8419,3.8439,3.8464,3.8477,3.8508,3.8524,3.8548,3.8538,3.8502,3.8607,3.8555,3.8606,3.8606,3.8628,3.8627,3.8781,3.8641,3.8641,3.8641,3.864,0,3.834,3.8394,3.8383,3.8419,3.8478,3.8462,3.8521,3.8525,3.8539,3.8575,3.8548,3.8583,3.8567,3.86,3.8592,3.8649,3.8657,3.8656,3.8653,3.8658,3.8658,3.8669,3.8661,3.8645,3.8644,3.8643,3.8642,0,3.8454,3.8449,3.851,3.8521,3.8526,3.8569,3.8578,3.8612,3.8611,3.8657,3.8667,3.8664,3.8703,3.8695,3.8737,3.8731,3.8803,3.8792,3.8797,3.8795,3.8845,3.8841,3.9011,3.9033,3.888,3.8881,3.8882,0,3.8526,3.8567,3.8583,3.8606,3.8617,3.8653,3.8675,3.8661,3.8685,3.8709,3.874,3.8776,3.8804,3.8867,3.8869,3.8901,3.889,3.8948,3.8895,3.8899,3.8891,3.8889,3.8893,3.8958,3.896,3.8961,3.8963,0,3.8656,3.8652,3.8684,3.8716,3.8742,3.8766,3.8787,3.8808,3.8796,3.8824,3.8864,3.8886,3.893,3.8966,3.8997,3.9005,3.8982,3.898,3.8993,3.8998,3.9,3.9,3.8826,3.8975,3.8974,3.8973,3.8972,3.8972,3.8751,3.8786,3.8803,3.884,3.8855,3.8877,3.8909,3.8913,3.8946,3.8981,3.8971,3.9016,3.9034,3.9073,3.9085,3.912,3.9099,3.9118,3.9123,3.9128,3.9134,3.8995,3.9126,3.9126,3.9125,3.9125,3.9125,0,3.8879,3.8889,3.8923,3.8955,3.8985,3.8962,3.8985,3.9011,3.9051,3.907,3.9099,3.9146,3.9181,3.9187,3.9221,3.9249,3.9239,3.9258,3.9255,3.9258,3.9151,3.9136,3.9265,3.9265,3.9265,3.9265,3.9265,3.9265,3.8949,3.9007,3.9006,3.9072,3.9082,3.9126,3.9142,3.9161,3.9176,3.9229,3.926,3.9263,3.9277,3.9313,3.9345,3.9346,3.9359,3.9382,3.9379,3.9279,3.9265,3.9252,3.9237,3.9386,3.9386,3.9483,3.9484,3.9484]},{"header":{"parameterUnit":"m.s-1","parameterCategory":1,"la1":30.2991,"la2":30.254,"lo1":-89.0895,"lo2":-89.0444,"dy":0.0017,"dx":0.0017,"nx":28,"ny":28,"refTime":"2025-03-19T03:00:00:Z","depth":0,"parameterNumber":3,"parameterNumberName":"V-component_of_WINDS"},"data":[0,0,0,0,0,0,0,0,0,0,0,0,0,0,0,0,0,0,0,0,0,0,0,0,0,0,0,0,0,0,0,0,0,0,0,0,0,0,0,0,0,0,0,0,0,0,0,0,0,0,0,0,0,0,0,0,0,0,-6.9262,-6.9263,0,-6.9431,-6.9432,-6.9434,-6.9392,-6.9388,-6.9385,-6.9382,-6.9551,-6.9559,-6.9566,0,0,0,0,0,0,0,0,0,0,0,0,0,-6.8899,-6.8906,-6.9261,-6.9264,-6.9266,-6.943,-6.9433,-6.9435,-6.9392,-6.9388,-6.9384,-6.9381,-6.9549,-6.9558,-6.9567,0,0,0,0,0,0,0,0,0,0,0,0,0,-6.9061,-6.8908,-6.9261,-6.9264,-6.9266,-6.943,-6.9433,-6.9435,-6.9393,-6.9388,-6.9383,-6.9379,-6.9546,-6.9557,-6.9568,-6.9738,0,0,-6.9603,-6.9608,0,0,0,0,0,0,0,0,-6.9052,-6.9074,-6.9262,-6.9264,-6.9267,-6.9385,-6.9367,-6.9537,-6.9394,-6.9345,-6.9382,-6.9376,-6.95,-6.9515,-6.9557,-6.9745,-6.9753,-6.9604,-6.9611,-6.9616,-6.9619,0,0,0,0,0,0,0,-6.9041,-6.9067,-6.9328,-6.9265,-6.9268,-6.9257,-6.9274,-6.9399,-6.9448,-6.9349,-6.9346,-6.9367,-6.95,-6.9546,-6.9561,-6.9755,-6.9604,-6.9614,-6.9621,-6.9625,-7.0092,-7.0097,0,0,0,0,0,0,-6.9028,-6.9058,-6.9323,-6.9333,-6.9145,-6.9267,-6.9287,-6.9352,-6.9447,-6.9456,-6.9371,-6.9364,-6.9529,-6.9548,-6.9567,-6.9771,-6.9616,-6.9626,-6.9633,-7.0086,-7.0093,-7.0099,0,0,0,0,0,0,-6.902,-6.9052,-6.9316,-6.9195,-6.9228,-6.9279,-6.9352,-6.9358,-6.9404,-6.9463,-6.9471,-6.9409,-6.9526,-6.9551,-6.9696,-6.9777,-6.9632,-6.9642,-7.0079,-7.0088,-7.0096,-7.0182,0,0,0,0,0,0,-6.901,-6.905,-6.9115,-6.9197,-6.9234,-6.9444,-6.9357,-6.9365,-6.9424,-6.9417,-6.9501,-6.951,-6.9524,-6.9679,-6.9707,-6.979,-6.9651,-7.0072,-7.0083,-7.0093,-7.0172,-7.0192,-7.021,0,0,0,0,0,-6.8997,-6.9132,-6.9118,-6.9151,-6.9317,-6.9448,-6.947,-6.9484,-6.9431,-6.9497,-6.9535,-6.9508,-6.9764,-6.9694,-6.9725,-6.9813,-7.0067,-7.008,-7.0092,-7.0164,-7.0189,-7.0209,0,0,0,0,0,0,-6.9056,-6.9142,-6.9129,-6.9294,-6.9364,-6.9441,-6.9524,-6.9509,-6.9595,-6.9584,-6.9597,-6.9616,-6.9765,-6.9803,-6.9725,-6.9982,-6.9908,-6.9927,-6.9951,-6.9975,-6.9994,-6.9981,-6.966,0,0,0,0,0,-6.9089,-6.9189,-6.9258,-6.9397,-6.9433,-6.9473,-6.953,-6.9535,-6.9608,-6.9637,-6.9686,-6.9757,-6.9853,-6.9916,-7.0008,-7.0178,-7.0196,-7.0253,-7.0272,-7.0287,-7.0303,-7.0396,-7.0423,-7.014,-7.014,-7.014,0,0,-6.9156,-6.9216,-6.9278,-6.941,-6.9465,-6.9568,-6.9498,-6.9609,-6.9685,-6.9654,-6.9794,-6.9833,-6.9913,-7.0071,-7.0143,-7.0108,-7.0386,-7.0303,-7.0315,-7.0323,-7.0412,-7.0439,-7.0463,-7.0148,-7.0147,-7.0145,0,0,-6.9332,-6.9387,-6.9509,-6.9566,-6.9651,-6.9677,-6.9706,-6.9786,-6.9811,-6.9953,-6.9931,-7.0021,-7.0187,-7.0245,-7.0296,-7.0496,-7.0474,-7.0525,-7.0622,-7.0713,-7.0735,-7.0755,-7.0826,-7.0852,-7.0541,-7.0542,-7.0542,0,-6.9404,-6.9559,-6.9573,-6.9687,-6.9746,-6.9724,-6.9847,-6.9902,-7.0012,-7.0053,-7.0012,-7.022,-7.0272,-7.0444,-7.0493,-7.0535,-7.0569,-7.0515,-7.0731,-7.0751,-7.077,-7.0838,-7.0865,-7.0547,-7.0547,-7.0546,-7.0546,0,-6.9645,-6.9752,-6.984,-6.9949,-7.0018,-7.0136,-7.0167,-7.0235,-7.0235,-7.0265,-7.0409,-7.0472,-7.0576,-7.0617,-7.0617,-7.079,-7.0765,-7.0728,-7.0653,-7.0802,-7.0866,-7.0892,-7.0555,-7.0553,-7.0552,-7.055,0,0,-6.9861,-6.9977,-7.0009,-7.0059,-7.0152,-7.0235,-7.0352,-7.0455,-7.0513,-7.059,-7.0689,-7.083,-7.0797,-7.0855,-7.0861,-7.0941,-7.1095,-7.0894,-7.0896,-7.0929,-7.1289,-7.1317,-7.1347,-7.1081,-7.1086,-7.109,-7.1282,0,-7.0044,-7.0252,-7.0268,-7.0455,-7.0555,-7.0536,-7.0638,-7.0705,-7.0737,-7.0825,-7.0859,-7.096,-7.0908,-7.0943,-7.1021,-7.106,-7.1167,-7.1046,-7.1172,-7.1176,-7.1152,-7.138,-7.1409,-7.1587,-7.1308,-7.1312,-7.1315,0,-7.0286,-7.0372,-7.0569,-7.0649,-7.0691,-7.0783,-7.088,-7.0965,-7.1041,-7.1058,-7.1125,-7.112,-7.124,-7.1162,-7.1327,-7.1244,-7.1297,-7.1324,-7.1331,-7.1343,-7.1254,-7.1398,-7.1645,-7.1671,-7.1354,-7.1351,-7.1348,0,-7.0424,-7.0589,-7.0728,-7.0771,-7.0868,-7.0933,-7.0976,-7.1048,-7.1109,-7.1194,-7.1234,-7.133,-7.1383,-7.1458,-7.148,-7.1421,-7.1644,-7.1568,-7.1661,-7.1661,-7.1708,-7.1705,-7.1967,-7.1743,-7.1743,-7.1742,-7.1742,0,-7.0627,-7.0748,-7.0792,-7.0878,-7.1013,-7.1031,-7.1164,-7.1203,-7.1267,-7.136,-7.1349,-7.1436,-7.1459,-7.155,-7.1568,-7.1702,-7.1726,-7.1743,-7.1746,-7.1744,-7.1742,-7.1778,-7.1766,-7.1749,-7.1748,-7.1746,-7.1745,0,-7.0804,-7.0838,-7.0989,-7.1069,-7.1092,-7.1188,-7.1256,-7.1338,-7.1368,-7.1485,-7.1514,-7.1561,-7.1668,-7.1697,-7.1825,-7.1836,-7.1994,-7.1986,-7.1969,-7.1969,-7.2061,-7.2052,-7.2355,-7.2396,-7.2145,-7.2147,-7.2149,0,-7.0931,-7.1024,-7.1115,-7.1176,-7.1223,-7.1322,-7.1386,-7.1407,-7.1473,-7.1568,-7.1639,-7.1745,-7.183,-7.2002,-7.2047,-7.2144,-7.2138,-7.2238,-7.2152,-7.2148,-7.2139,-7.2134,-7.2143,-7.2253,-7.2256,-7.2258,-7.226,0,-7.1153,-7.1166,-7.1258,-7.1357,-7.1434,-7.1512,-7.1587,-7.1638,-7.167,-7.1745,-7.1855,-7.1922,-7.2053,-7.2158,-7.2257,-7.23,-7.2286,-7.2287,-7.2313,-7.2312,-7.2298,-7.2307,-7.2013,-7.2279,-7.2277,-7.2276,-7.2275,-7.2274,-7.1309,-7.1391,-7.1468,-7.1572,-7.1631,-7.1702,-7.1783,-7.1825,-7.1917,-7.2027,-7.2033,-7.2153,-7.2227,-7.2359,-7.2408,-7.2501,-7.2471,-7.251,-7.2519,-7.2529,-7.2537,-7.2284,-7.2519,-7.2518,-7.2518,-7.2517,-7.2517,0,-7.1531,-7.158,-7.1675,-7.1781,-7.1863,-7.1844,-7.1926,-7.1996,-7.2101,-7.2173,-7.2258,-7.2384,-7.2486,-7.254,-7.2642,-7.2706,-7.2702,-7.2732,-7.2727,-7.2737,-7.2557,-7.2524,-7.2733,-7.2733,-7.2733,-7.2733,-7.2733,-7.2733,-7.1655,-7.1794,-7.1816,-7.1983,-7.2031,-7.2149,-7.2198,-7.2263,-7.2321,-7.2463,-7.2548,-7.2583,-7.2648,-7.2754,-7.2847,-7.286,-7.2897,-7.2931,-7.2941,-7.2772,-7.275,-7.2728,-7.2697,-7.2939,-7.294,-7.3113,-7.3114,-7.3115]}]]